Home   Weather   Niterói   Past weeks

Flag for Brazil Past Weather in Niterói, Rio de Janeiro, Brazil — Yesterday and Last 2 Weeks

Now
75 °F

Passing clouds.


Feels Like: 77 °F
Forecast: N/A
Wind: 8 mph from South

Location: Rio De Janeiro Airport

Current Time: Jun 28, 2017 at 6:06:21 pm

Latest Report: Jun 28, 2017 at 5:00 pm


Visibility: N/A

Pressure: 30.12 "Hg

Humidity: 74%

Dew Point: 66 °F

Location of NiteróiLocation

Past Weather in Niterói — Graph

°F

Niterói Temperature Yesterday

Maximum temperature yesterday: 79 °F (at 2:00 pm)
Minimum temperature yesterday: 64 °F (at 6:00 am)
Average temperature yesterday: 71 °F

High & Low Weather Summary for the Past Weeks

 TemperatureHumidityPressure
High84 °F (Jun 18, 2:00 pm)100% (Jun 14, 2:00 am)30.33 "Hg (Jun 14, 2:00 am)
Low64 °F (Jun 26, 4:00 am)42% (Jun 19, 6:00 pm)29.92 "Hg (Jun 15, 11:00 am)
Average72 °F83%30.16 "Hg
* Reported Jun 13 4:00 pm — Jun 28 4:00 pm, Niterói. Weather by CustomWeather, © 2017

Note: Actual official high and low records may vary slightly from our data, if they occured in-between our weather recording intervals... More about our weather records

Advertising

Niterói Weather History for the Previous 24 Hours

Scroll right to see more
 ConditionsComfort  
Time TempWeatherWind HumidityBarometerVisibility
4:00 pm
Wed, Jun 28
77 °FPassing clouds.10 mph74%30.12 "HgN/A
3:00 pm79 °FPassing clouds.10 mph74%30.12 "HgN/A
2:00 pm79 °FPassing clouds.6 mph70%30.15 "HgN/A
1:00 pm81 °FPassing clouds.3 mph58%30.15 "HgN/A
12:00 pm77 °FPassing clouds.5 mph69%30.21 "HgN/A
11:00 am77 °FPassing clouds.7 mph69%30.24 "HgN/A
10:00 am75 °FPassing clouds.7 mph74%30.24 "HgN/A
9:00 am73 °FPassing clouds.7 mph78%30.24 "Hg5 mi
8:00 am70 °FPassing clouds.7 mph88%30.21 "Hg5 mi
7:00 am68 °FScattered clouds.6 mph88%30.21 "Hg5 mi
6:00 am66 °FClear.6 mph94%30.21 "Hg10 mi
5:00 am68 °FPassing clouds.5 mph94%30.21 "HgN/A
4:00 am68 °FPassing clouds.5 mph88%30.21 "HgN/A
3:00 am68 °FPassing clouds.5 mph88%30.21 "HgN/A
2:00 am68 °FPassing clouds.3 mph88%30.21 "HgN/A
1:00 am68 °FClear.3 mph94%30.21 "Hg10 mi
12:00 am70 °FPassing clouds.2 mph83%30.24 "HgN/A
11:00 pm
Tue, Jun 27
70 °FClear.1 mph83%30.24 "Hg10 mi
10:00 pm70 °FClear.5 mph83%30.24 "Hg10 mi
9:00 pm70 °FClear.No wind78%30.24 "Hg10 mi
8:00 pm72 °FClear.3 mph73%30.21 "Hg10 mi
7:00 pm70 °FClear.3 mph78%30.21 "Hg10 mi
6:00 pm72 °FPassing clouds.3 mph83%30.18 "HgN/A
Weather by CustomWeather, © 2017

See weather overviewHow to use our weather pages